Regional Weather Roundup
Issued by NWS Albany, NY

Home | Current Version | Previous Version | Text Only | Print | Product List | Glossary On
Versions: 1 2 3 4 5 6 7 8 9 10 11 12 13 14 15 16 17 18 19 20 21 22 23 24 25 26 27 28 29 30 31 32 33 34 35 36 37 38 39 40 41 42 43 44 45 46 47 48 49 50
000
ASUS41 KALY 030110
RWRALY

NEW YORK STATE HOURLY WEATHER ROUNDUP
NATIONAL WEATHER SERVICE ALBANY NY
900 PM EDT TUE JUN 02 2015

NOTE: "FAIR" INDICATES FEW OR NO CLOUDS BELOW 12,000 FEET WITH NO
SIGNIFICANT WEATHER AND/OR NO OBSTRUCTIONS TO VISIBILITY.

NYZ032-033-038>043-046>054-057>066-NYZ062>081-030200-
EAST


CITY           SKY/WX    TMP DP  RH WIND       PRES   REMARKS
ALBANY         CLOUDY    58  50  75 S5        30.15R
GLENS FALLS    CLOUDY    56  49  77 NE12      30.17R
POUGHKEEPSIE   CLOUDY    55  51  86 CALM      30.15S
NEWBURGH       CLOUDY    54  54 100 NE5       30.17R
MONTGOMERY     CLOUDY    55  29  36 N3        30.15S
WHITE PLAINS   CLOUDY    52  51  97 E3        30.15S
ISLIP          LGT RAIN  52  50  93 E5        30.14R
NEW YORK CITY  LGT RAIN  54  50  86 E9        30.15F
CENTRAL PARK   LGT RAIN  53  51  93 VRB6      30.18S
$$

NYZ005>009-017-018-044>046-055-056-030200-
CENTRAL


CITY           SKY/WX    TMP DP  RH WIND       PRES   REMARKS
FULTON         PTCLDY    52  46  80 N5        30.19R
SYRACUSE       MOCLDY    55  49  80 NW6       30.18R
ROME           MOCLDY    54  48  80 NW8       30.18R
ELMIRA         MOCLDY    55  48  77 NE6       30.16R
BINGHAMTON     CLOUDY    54  48  80 N7        30.15S
MONTICELLO     CLOUDY    52  48  87 E6        30.17R
$$

NYZ026>034-041>043-030200-
NORTH


CITY           SKY/WX    TMP DP  RH WIND       PRES   REMARKS
WATERTOWN      CLEAR     51  46  83 NE5       30.20R
FORT DRUM      NOT AVBL
MASSENA        CLEAR     49  46  90 CALM      30.23R
SARANAC LAKE   CLOUDY    47  43  86 CALM      30.19R
PLATTSBURGH    PTCLDY    49  46  90 NW3       30.21R
$$

NYZ001>004-010>016-019>021-030200-
WEST


CITY           SKY/WX    TMP DP  RH WIND       PRES   REMARKS
NIAGARA FALLS  PTCLDY    59  47  64 E6        30.17R
BUFFALO        PTCLDY    60  45  57 E6        30.18R
DUNKIRK        PTCLDY    57  46  66 NE5       30.16R
JAMESTOWN      MOCLDY    57  43  58 N6        30.17R
WELLSVILLE     MOCLDY    54  46  74 NE8       30.18R
ROCHESTER      MOCLDY    57  44  62 E7        30.20R
PENN YAN       MOCLDY    51  48  89 CALM      30.18S
$$

             KEY
       WCI = WIND CHILL INDEX
       VSB = VISIBILITY
       HX  = HEAT INDEX
$$


USA.gov is the U.S. government's official web portal to all federal, state and local government web resources and services.